Location: ???????
(38.3360°N, 23.6977°E)
Time: 05:46:05
(UTC+00:00)

DELTA 2 R/B (1) - Pass Details

Date: 17 November 2025
Orbit: 786 x 800 km, 39.6° (Epoch: 09 December)

Event Time Altitude Azimuth Distance (km) Brightness Sun altitude
Rises 17:19:46 0° 244° (WSW) 3,272 7.9 -25.1°
Reaches altitude 10° 17:22:15 10° 241° (WSW) 2,343 6.9 -25.6°
Enters shadow 17:27:38 67° 167° (SSE) 851 3.6 -26.7°
